Flag for Ukraine Weather past 2 weeks in Kyiv, Ukraine

63 °F

Passing clouds.

Feels Like: 63 °F
Forecast: 49 / 74 °F
Wind: 3 mph from Southwest

Location: Kyiv

Current Time: Oct 4, 2015 at 11:05:39 AM

Latest Report: Oct 4, 2015 at 10:30 AM

Visibility: N/A

Pressure: 30.21 "Hg

Humidity: 49%

Dew point: 43 °F

Location of KyivLocation

Historic Weather in Kyiv — Graph


Kyiv temperature yesterday

Maximum temperature yesterday: 72 °F (at 2:30 PM)
Minimum temperature yesterday: 43 °F (at 6:00 AM)
Average temperature yesterday: 55 °F

Past Weeks' High & Low Weather Summary

High88 °F (Sep 19, 2:00 PM)100% (Sep 21, 8:00 AM)30.45 "Hg (Sep 21, 8:00 AM)
Low39 °F (Oct 2, 5:00 AM)19% (Sep 20, 4:30 PM)29.80 "Hg (Sep 21, 2:00 AM)
Average61 °F67%30.12 "Hg
* Reported Sep 19 10:00 AM — Oct 4 10:00 AM, Kyiv, Weather by CustomWeather, © 2015

Note: Actual official high and low records may vary slightly from our data, if they occured in-between our weather recording intervals... More about our weather records


Kyiv weather history for previous 24 hours

Time TempWeatherWind HumidityBarometerVisibility
10:00 AM
Sun, Oct 4
59 °FClear.6 mph55%30.21 "HgN/A
9:30 AM54 °FClear.1 mph67%30.21 "Hg3 mi
9:00 AM48 °FSunny.No wind82%30.21 "Hg10 mi
8:30 AM45 °FSunny.1 mph87%30.21 "Hg10 mi
8:00 AM43 °FClear.3 mph87%30.21 "Hg10 mi
7:30 AM41 °FClear.3 mph87%30.21 "Hg10 mi
7:00 AM41 °FClear.No wind87%30.21 "Hg10 mi
6:30 AM39 °FClear.No wind93%30.21 "Hg10 mi
6:00 AM39 °FClear.1 mph93%30.21 "Hg10 mi
5:30 AM41 °FClear.No wind87%30.21 "Hg10 mi
5:00 AM41 °FClear.No wind87%30.21 "Hg10 mi
4:30 AM41 °FClear.No wind87%30.21 "Hg10 mi
4:00 AM41 °FClear.1 mph87%30.21 "Hg10 mi
3:30 AM39 °FClear.No wind93%30.21 "Hg10 mi
3:00 AM41 °FClear.1 mph87%30.21 "Hg10 mi
2:30 AM41 °FClear.1 mph87%30.21 "Hg10 mi
2:00 AM41 °FClear.3 mph87%30.21 "Hg10 mi
1:30 AM43 °FClear.1 mph76%30.21 "Hg10 mi
12:30 AM43 °FClear.3 mph81%30.21 "Hg10 mi
12:00 AM45 °FClear.3 mph76%30.21 "Hg10 mi
11:30 PM
Sat, Oct 3
45 °FClear.1 mph71%30.21 "Hg10 mi
11:00 PM45 °FClear.3 mph76%30.18 "Hg10 mi
10:30 PM50 °FClear.No wind58%30.18 "Hg10 mi
10:00 PM52 °FClear.3 mph54%30.18 "Hg10 mi
9:30 PM55 °FClear.3 mph47%30.18 "Hg10 mi
9:00 PM55 °FClear.3 mph47%30.18 "Hg10 mi
8:30 PM55 °FClear.6 mph47%30.18 "Hg10 mi
8:00 PM54 °FClear.6 mph51%30.18 "Hg6 mi
7:30 PM59 °FSunny.3 mph42%30.15 "Hg10 mi
7:00 PM63 °FSunny.3 mph34%30.15 "Hg10 mi
6:30 PM64 °FSunny.6 mph32%30.15 "Hg10 mi
6:00 PM66 °FSunny.8 mph30%30.15 "Hg10 mi
5:30 PM70 °FSunny.10 mph25%30.15 "Hg10 mi
5:00 PM70 °FSunny.10 mph27%30.15 "Hg10 mi
4:30 PM72 °FSunny.10 mph23%30.15 "Hg10 mi
4:00 PM72 °FSunny.13 mph23%30.15 "Hg10 mi
3:30 PM72 °FSunny.13 mph23%30.15 "Hg10 mi
3:00 PM72 °FSunny.13 mph23%30.15 "Hg10 mi
2:30 PM72 °FSunny.15 mph23%30.15 "Hg10 mi
2:00 PM70 °FSunny.15 mph27%30.15 "Hg10 mi
1:30 PM70 °FSunny.15 mph27%30.15 "Hg10 mi
1:00 PM68 °FSunny.17 mph28%30.15 "Hg10 mi
12:30 PM68 °FSunny.15 mph30%30.18 "Hg10 mi
12:00 PM64 °FSunny.15 mph37%30.18 "Hg10 mi
11:30 AM63 °FSunny.15 mph42%30.18 "Hg10 mi
11:00 AM61 °FSunny.13 mph45%30.18 "Hg10 mi
Weather by CustomWeather, © 2015

See weather overviewHow to use our weather pages